Location: Bacharowice
(49.9333°N, 19.5833°E)
Time: 22:41:14
(UTC+00:00)

Cosmos 1340 Rocket - Pass Details

Date: 11 May 2021
Orbit: 527 x 559 km, 81.2° (Epoch: 21 June)

Event Time Altitude Azimuth Distance (km) Brightness Sun altitude
Rises 20:48:56 0° 348° (NNW) 2,761 7.9 -17.8°
Reaches altitude 10° 20:51:08 10° 350° (N) 1,860 6.7 -18.0°
Maximum altitude 20:55:14 80° 77° (ENE) 574 2.8 -18.3°
Enters shadow 20:56:27 45° 157° (SSE) 773 3.1 -18.3°
